Regional Weather Roundup
Issued by NWS Sioux Falls, SD

Home | Current Version | Previous Version | Text Only | Print | Product List | Glossary On
Versions: 1 2 3 4 5 6 7 8 9 10 11 12 13 14 15 16 17 18 19 20 21 22 23 24 25 26 27 28 29 30 31 32 33 34 35 36 37 38 39 40 41 42 43 44 45 46 47 48 49 50
000
ASUS43 KFSD 201310
RWRFSD

WEATHER ROUNDUP FOR SE SOUTH DAKOTA/SW MINNESOTA/NW IOWA
NATIONAL WEATHER SERVICE SIOUX FALLS SD
800 AM CDT SAT SEP 20 2014

NOTE: "FAIR" INDICATES FEW OR NO CLOUDS BELOW 12,000 FEET WITH NO
SIGNIFICANT WEATHER AND OR OBSTRUCTIONS TO VISIBILITY.


SDZ038>040-050-052>070-201400-
SOUTHEAST SOUTH DAKOTA

CITY           SKY/WX    TMP DP  RH WIND       PRES   REMARKS
CHAMBERLAIN    CLEAR     56  53  88 W6        29.95R
HURON          CLEAR     53  50  89 W5        29.90R
MADISON        FAIR      55  55 100 W5        29.91R
MITCHELL       CLEAR     59  56  89 W5        29.92R
SIOUX FALLS    MOCLDY    62  58  86 W5        29.89S
WINNER         FAIR      59  52  77 W7        29.97R
YANKTON        MOCLDY    63  55  77 W7        29.91R
$$

MNZ071-072-080-081-089-090-097-098-201400-
SOUTHWEST MINNESOTA

CITY           SKY/WX    TMP DP  RH WIND       PRES   REMARKS
FAIRMONT       CLOUDY    64  57  77 NW9       29.84R
JACKSON        MOCLDY    63  57  82 W7        29.87R
LUVERNE        CLOUDY    61  55  82 W3        29.89S
MARSHALL       PTCLDY    57  52  82 NW8       29.85R
MONTEVIDEO     CLEAR     59  55  88 NW3       29.86R
PIPESTONE      MOCLDY    57  55  94 W3        29.89R
REDWOOD FALLS  PTCLDY    60  56  86 NW10      29.83R
TRACY          PTCLDY    61  57  87 CALM      29.86S
WINDOM         MOCLDY    63  57  82 NW6       29.85S
WORTHINGTON    CLOUDY    61  57  88 SW7       29.89R
$$

IAZ001>003-012>014-020>022-031-032-NEZ013-014-SDZ071-201400-
NORTHWEST IOWA

CITY           SKY/WX    TMP DP  RH WIND       PRES   REMARKS
CHEROKEE       LGT RAIN  64  64  99 CALM      29.89R
DENISON        MOCLDY    66  66 100 W6        29.88R
ESTHERVILLE    CLOUDY    64  61  90 W6        29.86R
LE MARS        CLOUDY    64  61  88 CALM      29.90R
ORANGE CITY    LGT RAIN  64  59  82 N5        29.89F
SHELDON        DRIZZLE   61  61 100 CALM      29.87F
SIOUX CITY     MOCLDY    63  62  97 NW3       29.89R
SPENCER        LGT RAIN  65  61  87 NW7       29.89R
$$

ABBREVIATIONS USED IN REMARKS
   TC - TEMPERATURE IN CELSIUS
  WCI - WIND CHILL INDEX
   HX - HEAT INDEX
  VSB - VISIBILITY



USA.gov is the U.S. government's official web portal to all federal, state and local government web resources and services.